Location: Asheville, NC
(35.6000°N, 82.5500°W)
Time: 17:08:29
(UTC-04:00)

Vanguard 1 Rocket - Pass Details

Date: 11 March 2018
Orbit: 653 x 4224 km, 34.3° (Epoch: 18 June)

Event Time Altitude Azimuth Distance (km) Brightness Sun altitude
Rises 21:09:21 0° 261° (W) 4,319 12.1 -20.0°
Reaches altitude 10° 21:11:38 10° 260° (W) 3,639 11.5 -20.5°
Maximum altitude 21:21:35 84° 174° (S) 2,324 9.3 -22.5°
Enters shadow 21:32:40 30° 89° (E) 4,576 10.3 -24.7°
